Find Starlink 11077

NORAD ID: 58707 Int'l Des: 2024-002 Owner: SPXS Country: US Constellation: starlink operational
又名: STARLINK-11077 [DTC] celestrak
LEOCIRCULAR

当前视图

正在加载3D地球...

About Starlink 11077

Starlink 11077 (NORAD 58707) is a starlink constellation satellite (v2 mini d2c) launched Jan 3, 2024 by SPXS of US. It operates in LEO, CIRCULAR orbit with a mass of 960.00 kg.

即将过境

Passes for default location (London). Set your location on the main map for personalized predictions.

高度历史

Loading altitude history...

两行轨道根数

1 58707U 24002C 26237.52666672 .00001064 00000-0 13634-4 0 9997
2 58707 53.1602 161.8087 0001028 105.6400 254.4732 15.69716963152956
Epoch: Aug 25, 2026 • Age: 17 hours

当前状态

高度 365.6 km
远地点 / 近地点 N/A
速度 7.70 km/s
星下点 53.30°N, 171.9°W
发射日期 Jan 3, 2024
运行时间 2.6 years
类型 internet

技术详情

分类 Payload
质量 960.00 kg
干质量 910.00 kg
总质量 960.00 kg
长度 0.30 m
直径 4.10 m
跨度 29.00 m
形状 Box + pan
制造商 SPXS
平台类型 Starlink V2MD
阶段状态 In Orbit
所有者/国家 SPXS/US

Most Searched